Location: Praha
(50.0830°N, 14.4670°E)
Time: 19:14:03
(UTC+02:00)

ISS - Pass Details

Date: 01 May 2021
Orbit: 418 x 422 km, 51.6° (Epoch: 13 April)

Event Time Altitude Azimuth Distance (km) Brightness Sun altitude
Exits shadow 03:31:58 19° 153° (SSE) 1,055 -2.0 -16.7°
Maximum altitude 03:32:24 20° 142° (SE) 1,038 -1.9 -16.6°
Drops below altitude 10° 03:34:57 10° 93° (E) 1,507 -0.5 -16.4°
Sets 03:37:25 0° 76° (ENE) 2,375 1.0 -16.1°
